Year,Month,Day,Hour,Minute,Value (Times are PST for temperature in C)
2019,01,20,00,00,6.10
2019,01,20,00,01,6.10
2019,01,20,00,02,6.10
2019,01,20,00,03,6.00
2019,01,20,00,04,6.10
2019,01,20,00,05,6.00
2019,01,20,00,06,6.00
2019,01,20,00,07,6.10
2019,01,20,00,08,6.10
2019,01,20,00,09,6.10
2019,01,20,00,10,6.10
2019,01,20,00,11,6.00
2019,01,20,00,12,6.10
2019,01,20,00,13,6.00
2019,01,20,00,14,6.10
2019,01,20,00,15,6.00
2019,01,20,00,16,6.00
2019,01,20,00,17,6.10
2019,01,20,00,18,6.10
2019,01,20,00,19,6.10
2019,01,20,00,20,6.10
2019,01,20,00,21,6.10
2019,01,20,00,22,6.10
2019,01,20,00,23,6.10
2019,01,20,00,24,6.10
2019,01,20,00,25,6.10
2019,01,20,00,26,6.10
2019,01,20,00,27,6.10
2019,01,20,00,28,6.10
2019,01,20,00,29,6.10
2019,01,20,00,30,6.10
2019,01,20,00,31,6.10
2019,01,20,00,32,6.10
2019,01,20,00,33,6.20
2019,01,20,00,34,6.10
2019,01,20,00,35,6.10
2019,01,20,00,36,6.10
2019,01,20,00,37,6.20
2019,01,20,00,38,6.20
2019,01,20,00,39,6.20
2019,01,20,00,40,6.20
2019,01,20,00,41,6.20
2019,01,20,00,42,6.20
2019,01,20,00,43,6.20
2019,01,20,00,44,6.20
2019,01,20,00,45,6.20
2019,01,20,00,46,6.20
2019,01,20,00,47,6.20
2019,01,20,00,48,6.20
2019,01,20,00,49,6.20
2019,01,20,00,50,6.20
2019,01,20,00,51,6.20
2019,01,20,00,52,6.20
2019,01,20,00,53,6.20
2019,01,20,00,54,6.20
2019,01,20,00,55,6.20
2019,01,20,00,56,6.20
2019,01,20,00,57,6.30
2019,01,20,00,58,6.30
2019,01,20,00,59,6.30
2019,01,20,01,00,6.30
2019,01,20,01,01,6.30
2019,01,20,01,02,6.30
2019,01,20,01,03,6.30
2019,01,20,01,04,6.30
2019,01,20,01,05,6.30
2019,01,20,01,06,6.30
2019,01,20,01,07,6.30
2019,01,20,01,08,6.30
2019,01,20,01,09,6.30
2019,01,20,01,10,6.30
2019,01,20,01,11,6.30
2019,01,20,01,12,6.30
2019,01,20,01,13,6.30
2019,01,20,01,14,6.30
2019,01,20,01,15,6.30
2019,01,20,01,16,6.30
2019,01,20,01,17,6.30
2019,01,20,01,18,6.30
2019,01,20,01,19,6.30
2019,01,20,01,20,6.30
2019,01,20,01,21,6.30
2019,01,20,01,22,6.30
2019,01,20,01,23,6.30
2019,01,20,01,24,6.30
2019,01,20,01,25,6.30
2019,01,20,01,26,6.30
2019,01,20,01,27,6.30
2019,01,20,01,28,6.30
2019,01,20,01,29,6.30
2019,01,20,01,30,6.20
2019,01,20,01,31,6.20
2019,01,20,01,32,6.20
2019,01,20,01,33,6.20
2019,01,20,01,34,6.20
2019,01,20,01,35,6.20
2019,01,20,01,36,6.20
2019,01,20,01,37,6.10
2019,01,20,01,38,6.20
2019,01,20,01,39,6.20
2019,01,20,01,40,6.10
2019,01,20,01,41,6.10
2019,01,20,01,42,6.10
2019,01,20,01,43,6.10
2019,01,20,01,44,6.10
2019,01,20,01,45,6.10
2019,01,20,01,46,6.10
2019,01,20,01,47,6.10
2019,01,20,01,48,6.10
2019,01,20,01,49,6.00
2019,01,20,01,50,6.00
2019,01,20,01,51,6.00
2019,01,20,01,52,6.00
2019,01,20,01,53,6.00
2019,01,20,01,54,6.00
2019,01,20,01,55,6.00
2019,01,20,01,56,6.00
2019,01,20,01,57,6.00
2019,01,20,01,58,6.00
2019,01,20,01,59,6.00
2019,01,20,02,00,6.00
2019,01,20,02,01,6.00
2019,01,20,02,02,6.00
2019,01,20,02,03,6.00
2019,01,20,02,04,6.00
2019,01,20,02,05,6.00
2019,01,20,02,06,6.00
2019,01,20,02,07,6.00
2019,01,20,02,08,5.90
2019,01,20,02,09,5.90
2019,01,20,02,10,5.90
2019,01,20,02,11,5.90
2019,01,20,02,12,5.90
2019,01,20,02,13,5.90
2019,01,20,02,14,5.90
2019,01,20,02,15,5.90
2019,01,20,02,16,5.90
2019,01,20,02,17,5.90
2019,01,20,02,18,5.80
2019,01,20,02,19,5.80
2019,01,20,02,20,5.80
2019,01,20,02,21,5.80
2019,01,20,02,22,5.80
2019,01,20,02,23,5.80
2019,01,20,02,24,5.80
2019,01,20,02,25,5.80
2019,01,20,02,26,5.80
2019,01,20,02,27,5.80
2019,01,20,02,28,5.80
2019,01,20,02,29,5.80
2019,01,20,02,30,5.80
2019,01,20,02,31,5.80
2019,01,20,02,32,5.80
2019,01,20,02,33,5.70
2019,01,20,02,34,5.70
2019,01,20,02,35,5.70
2019,01,20,02,36,5.70
2019,01,20,02,37,5.70
2019,01,20,02,38,5.70
2019,01,20,02,39,5.70
2019,01,20,02,40,5.70
2019,01,20,02,41,5.60
2019,01,20,02,42,5.60
2019,01,20,02,43,5.60
2019,01,20,02,44,5.60
2019,01,20,02,45,5.60
2019,01,20,02,46,5.60
2019,01,20,02,47,5.60
2019,01,20,02,48,5.60
2019,01,20,02,49,5.60
2019,01,20,02,50,5.60
2019,01,20,02,51,5.60
2019,01,20,09,04,5.20
2019,01,20,09,05,5.20
2019,01,20,09,06,5.20
2019,01,20,09,07,5.20
2019,01,20,09,08,5.20
2019,01,20,09,09,5.20
2019,01,20,09,10,5.20
2019,01,20,09,11,5.20
2019,01,20,09,12,5.30
2019,01,20,09,13,5.30
2019,01,20,09,14,5.30
2019,01,20,09,15,5.30
2019,01,20,09,16,5.30
2019,01,20,09,17,5.30
2019,01,20,09,18,5.30
2019,01,20,09,19,5.30
2019,01,20,09,20,5.40
2019,01,20,09,21,5.40
2019,01,20,09,22,5.40
2019,01,20,09,23,5.40
2019,01,20,09,24,5.40
2019,01,20,09,25,5.50
2019,01,20,09,26,5.50
2019,01,20,09,27,5.50
2019,01,20,09,28,5.50
2019,01,20,09,29,5.50
2019,01,20,09,30,5.60
2019,01,20,09,31,5.60
2019,01,20,09,32,5.60
2019,01,20,09,33,5.60
2019,01,20,09,34,5.60
2019,01,20,09,35,5.60
2019,01,20,09,36,5.60
2019,01,20,09,37,5.60
2019,01,20,09,38,5.60
2019,01,20,09,39,5.70
2019,01,20,09,40,5.70
2019,01,20,09,41,5.70
2019,01,20,09,42,5.70
2019,01,20,09,43,5.70
2019,01,20,09,44,5.70
2019,01,20,09,45,5.70
2019,01,20,09,46,5.70
2019,01,20,09,47,5.70
2019,01,20,09,48,5.70
2019,01,20,09,49,5.70
2019,01,20,09,50,5.80
2019,01,20,09,51,5.80
2019,01,20,09,52,5.80
2019,01,20,09,53,5.80
2019,01,20,09,54,5.80
2019,01,20,09,55,5.80
2019,01,20,09,56,5.80
2019,01,20,09,57,5.80
2019,01,20,09,58,5.80
2019,01,20,09,59,5.80
2019,01,20,10,00,5.80
2019,01,20,10,01,5.80
2019,01,20,10,02,5.80
2019,01,20,10,03,5.90
2019,01,20,10,04,5.90
2019,01,20,10,05,5.90
2019,01,20,10,06,5.90
2019,01,20,10,07,5.90
2019,01,20,10,08,5.90
2019,01,20,10,09,5.90
2019,01,20,10,10,5.90
2019,01,20,10,11,5.90
2019,01,20,10,12,5.90
2019,01,20,10,13,5.90
2019,01,20,10,14,5.90
2019,01,20,10,15,6.00
2019,01,20,10,16,6.00
2019,01,20,10,17,6.00
2019,01,20,10,18,6.00
2019,01,20,10,19,6.00
2019,01,20,10,20,6.00
2019,01,20,10,21,6.00
2019,01,20,10,22,6.10
2019,01,20,10,23,6.10
2019,01,20,10,24,6.10
2019,01,20,10,25,6.10
2019,01,20,10,26,6.10
2019,01,20,10,27,6.10
2019,01,20,10,28,6.10
2019,01,20,10,29,6.10
2019,01,20,10,30,6.10
2019,01,20,10,31,6.10
2019,01,20,10,32,6.10
2019,01,20,10,33,6.10
2019,01,20,10,34,6.20
2019,01,20,10,35,6.20
2019,01,20,10,36,6.20
2019,01,20,10,37,6.20
2019,01,20,10,38,6.20
2019,01,20,10,39,6.20
2019,01,20,10,40,6.20
2019,01,20,10,41,6.20
2019,01,20,10,42,6.30
2019,01,20,10,43,6.30
2019,01,20,10,44,6.30
2019,01,20,10,45,6.30
2019,01,20,10,46,6.30
2019,01,20,10,47,6.30
2019,01,20,10,48,6.30
2019,01,20,10,49,6.30
2019,01,20,10,50,6.30
2019,01,20,10,51,6.30
2019,01,20,10,52,6.40
2019,01,20,10,53,6.40
2019,01,20,10,54,6.40
2019,01,20,10,55,6.40
2019,01,20,10,56,6.40
2019,01,20,10,57,6.40
2019,01,20,10,58,6.50
2019,01,20,10,59,6.50
2019,01,20,11,00,6.50
2019,01,20,11,01,6.50
2019,01,20,11,02,6.50
2019,01,20,11,03,6.50
2019,01,20,11,04,6.50
2019,01,20,11,05,6.60
2019,01,20,11,06,6.60
2019,01,20,11,07,6.60
2019,01,20,11,08,6.60
2019,01,20,11,09,6.60
2019,01,20,11,10,6.60
2019,01,20,11,11,6.60
2019,01,20,11,12,6.60
2019,01,20,11,13,6.60
2019,01,20,11,14,6.60
2019,01,20,11,15,6.60
2019,01,20,11,16,6.70
2019,01,20,11,17,6.70
2019,01,20,11,18,6.70
2019,01,20,11,19,6.70
2019,01,20,11,20,6.80
2019,01,20,11,21,6.80
2019,01,20,11,22,6.80
2019,01,20,11,23,6.80
2019,01,20,11,24,6.80
2019,01,20,11,25,6.80
2019,01,20,11,26,6.90
2019,01,20,11,27,6.90
2019,01,20,11,28,6.90
2019,01,20,11,29,6.80
2019,01,20,11,30,6.80
2019,01,20,11,31,6.80
2019,01,20,11,32,6.80
2019,01,20,11,33,6.80
2019,01,20,11,34,6.80
2019,01,20,11,35,6.80
2019,01,20,11,36,6.80
2019,01,20,11,37,6.90
2019,01,20,11,38,6.90
2019,01,20,11,39,6.90
2019,01,20,11,40,6.90
2019,01,20,11,41,6.90
2019,01,20,11,42,6.90
2019,01,20,11,43,6.90
2019,01,20,11,44,6.90
2019,01,20,11,45,6.90
2019,01,20,11,46,6.90
2019,01,20,11,47,6.90
2019,01,20,11,48,6.90
2019,01,20,11,49,6.90
2019,01,20,11,50,6.90
2019,01,20,11,51,6.90
2019,01,20,11,52,6.90
2019,01,20,11,53,6.90
2019,01,20,11,54,6.90
2019,01,20,11,55,6.90
2019,01,20,11,56,7.00
2019,01,20,11,57,7.00
2019,01,20,11,58,7.00
2019,01,20,11,59,7.00
2019,01,20,12,00,7.00
2019,01,20,12,01,7.10
2019,01,20,12,02,7.10
2019,01,20,12,03,7.10
2019,01,20,12,04,7.10
2019,01,20,12,05,7.10
2019,01,20,12,06,7.20
2019,01,20,12,07,7.20
2019,01,20,12,08,7.20
2019,01,20,12,09,7.20
2019,01,20,12,10,7.20
2019,01,20,12,11,7.20
2019,01,20,12,12,7.20
2019,01,20,12,13,7.20
2019,01,20,12,14,7.20
2019,01,20,12,15,7.30
2019,01,20,12,16,7.30
2019,01,20,12,17,7.30
2019,01,20,12,18,7.30
2019,01,20,12,19,7.30
2019,01,20,12,20,7.30
2019,01,20,12,21,7.30
2019,01,20,12,22,7.30
2019,01,20,12,23,7.30
2019,01,20,12,24,7.30
2019,01,20,12,25,7.40
2019,01,20,12,26,7.40
2019,01,20,12,27,7.40
2019,01,20,12,28,7.40
2019,01,20,12,29,7.40
2019,01,20,12,30,7.40
2019,01,20,12,31,7.40
2019,01,20,12,32,7.40
2019,01,20,12,33,7.40
2019,01,20,12,34,7.40
2019,01,20,12,35,7.30
2019,01,20,12,36,7.40
2019,01,20,12,37,7.40
2019,01,20,12,38,7.40
2019,01,20,12,39,7.40
2019,01,20,12,40,7.40
2019,01,20,12,41,7.50
2019,01,20,12,42,7.50
2019,01,20,12,43,7.50
2019,01,20,12,44,7.50
2019,01,20,12,45,7.50
2019,01,20,12,46,7.60
2019,01,20,12,47,7.60
2019,01,20,12,48,7.60
2019,01,20,12,49,7.60
2019,01,20,12,50,7.60
2019,01,20,12,51,7.60
2019,01,20,12,52,7.60
2019,01,20,12,53,7.60
2019,01,20,12,54,7.60
2019,01,20,12,55,7.70
2019,01,20,12,56,7.70
2019,01,20,12,57,7.70
2019,01,20,12,58,7.70
2019,01,20,12,59,7.60
2019,01,20,13,00,7.60
2019,01,20,13,01,7.60
2019,01,20,13,02,7.60
2019,01,20,13,03,7.60
2019,01,20,13,04,7.60
2019,01,20,13,05,7.60
2019,01,20,13,06,7.60
2019,01,20,13,07,7.60
2019,01,20,13,08,7.60
2019,01,20,13,09,7.60
2019,01,20,13,10,7.60
2019,01,20,13,11,7.70
2019,01,20,13,12,7.70
2019,01,20,13,13,7.80
2019,01,20,13,14,7.80
2019,01,20,13,15,7.80
2019,01,20,13,16,7.80
2019,01,20,13,17,7.90
2019,01,20,13,18,7.90
2019,01,20,13,19,7.90
2019,01,20,13,20,8.00
2019,01,20,13,21,8.00
2019,01,20,13,22,8.00
2019,01,20,13,23,8.00
2019,01,20,13,24,8.10
2019,01,20,13,25,8.10
2019,01,20,13,26,8.10
2019,01,20,13,27,8.10
2019,01,20,13,28,8.10
2019,01,20,13,29,8.10
2019,01,20,13,30,8.10
2019,01,20,13,31,8.10
2019,01,20,13,32,8.10
2019,01,20,13,33,8.10
2019,01,20,13,34,8.10
2019,01,20,13,35,8.10
2019,01,20,13,36,8.10
2019,01,20,13,37,8.10
2019,01,20,13,38,8.10
2019,01,20,13,39,8.10
2019,01,20,13,40,8.10
2019,01,20,13,41,8.10
2019,01,20,13,42,8.10
2019,01,20,13,43,8.10
2019,01,20,13,44,8.10
2019,01,20,13,45,8.20
2019,01,20,13,46,8.20
2019,01,20,13,47,8.20
2019,01,20,13,48,8.20
2019,01,20,13,49,8.20
2019,01,20,13,50,8.30
2019,01,20,13,51,8.30
2019,01,20,13,52,8.30
2019,01,20,13,53,8.30
2019,01,20,13,54,8.30
2019,01,20,13,55,8.30
2019,01,20,13,56,8.40
2019,01,20,13,57,8.40
2019,01,20,13,58,8.40
2019,01,20,13,59,8.40
2019,01,20,14,00,8.40
2019,01,20,14,01,8.40
2019,01,20,14,02,8.40
2019,01,20,14,03,8.40
2019,01,20,14,04,8.40
2019,01,20,14,05,8.40
2019,01,20,14,06,8.40
2019,01,20,14,07,8.40
2019,01,20,14,08,8.50
2019,01,20,14,09,8.50
2019,01,20,14,10,8.50
2019,01,20,14,11,8.50
2019,01,20,14,12,8.50
2019,01,20,14,13,8.50
2019,01,20,14,14,8.50
2019,01,20,14,15,8.50
2019,01,20,14,16,8.50
2019,01,20,14,17,8.60
2019,01,20,14,18,8.60
2019,01,20,14,19,8.60
2019,01,20,14,20,8.60
2019,01,20,14,21,8.50
2019,01,20,14,22,8.50
2019,01,20,14,23,8.50
2019,01,20,14,24,8.60
2019,01,20,14,25,8.60
2019,01,20,14,26,8.60
2019,01,20,14,27,8.60
2019,01,20,14,28,8.60
2019,01,20,14,29,8.70
2019,01,20,14,30,8.60
2019,01,20,14,31,8.60
2019,01,20,14,32,8.60
2019,01,20,14,33,8.60
2019,01,20,14,34,8.60
2019,01,20,14,35,8.60
2019,01,20,14,36,8.60
2019,01,20,14,37,8.70
2019,01,20,14,38,8.70
2019,01,20,14,39,8.70
2019,01,20,14,40,8.70
2019,01,20,14,41,8.70
2019,01,20,14,42,8.70
2019,01,20,14,43,8.70
2019,01,20,14,44,8.70
2019,01,20,14,45,8.70
2019,01,20,14,46,8.70
2019,01,20,14,47,8.70
2019,01,20,14,48,8.80
2019,01,20,14,49,8.80
2019,01,20,14,50,8.80
2019,01,20,14,51,8.80
2019,01,20,14,52,8.70
2019,01,20,14,53,8.70
2019,01,20,14,54,8.70
2019,01,20,14,55,8.70
2019,01,20,14,56,8.70
2019,01,20,14,57,8.70
2019,01,20,14,58,8.70
2019,01,20,14,59,8.70
2019,01,20,15,00,8.70
2019,01,20,15,01,8.80
2019,01,20,15,02,8.80
2019,01,20,15,03,8.80
2019,01,20,15,04,8.80
2019,01,20,15,05,8.80
2019,01,20,15,06,8.80
2019,01,20,15,07,8.80
2019,01,20,15,08,8.90
2019,01,20,15,09,8.90
2019,01,20,15,10,8.90
2019,01,20,15,11,8.90
2019,01,20,15,12,8.90
2019,01,20,15,13,8.90
2019,01,20,15,14,8.90
2019,01,20,15,15,8.90
2019,01,20,15,16,8.90
2019,01,20,15,17,8.90
2019,01,20,15,18,8.90
2019,01,20,15,19,8.90
2019,01,20,15,20,8.90
2019,01,20,15,21,8.90
2019,01,20,15,22,8.90
2019,01,20,15,23,9.00
2019,01,20,15,24,9.00
2019,01,20,15,25,9.00
2019,01,20,15,26,9.00
2019,01,20,15,27,9.10
2019,01,20,15,28,9.10
2019,01,20,15,29,9.20
2019,01,20,15,30,9.20
2019,01,20,15,31,9.30
2019,01,20,15,32,9.30
2019,01,20,15,33,9.30
2019,01,20,15,34,9.30
2019,01,20,15,35,9.30
2019,01,20,15,36,9.30
2019,01,20,15,37,9.30
2019,01,20,15,38,9.40
2019,01,20,15,39,9.40
2019,01,20,15,40,9.40
2019,01,20,15,41,9.50
2019,01,20,15,42,9.50
2019,01,20,15,43,9.50
2019,01,20,15,44,9.50
2019,01,20,15,45,9.50
2019,01,20,15,46,9.50
2019,01,20,15,47,9.40
2019,01,20,15,48,9.40
2019,01,20,15,49,9.30
2019,01,20,15,50,9.30
2019,01,20,15,51,9.20
2019,01,20,15,52,9.20
2019,01,20,15,53,9.10
2019,01,20,15,54,9.00
2019,01,20,15,55,8.90
2019,01,20,15,56,8.80
2019,01,20,15,57,8.70
2019,01,20,15,58,8.60
2019,01,20,15,59,8.60
2019,01,20,16,00,8.50
2019,01,20,16,01,8.50
2019,01,20,16,02,8.40
2019,01,20,16,03,8.40
2019,01,20,16,04,8.30
2019,01,20,16,05,8.30
2019,01,20,16,06,8.30
2019,01,20,16,07,8.20
2019,01,20,16,08,8.20
2019,01,20,16,09,8.20
2019,01,20,16,10,8.20
2019,01,20,16,11,8.10
2019,01,20,16,12,8.10
2019,01,20,16,13,8.10
2019,01,20,16,14,8.10
2019,01,20,16,15,8.10
2019,01,20,16,16,8.00
2019,01,20,16,17,8.00
2019,01,20,16,18,8.00
2019,01,20,16,19,8.00
2019,01,20,16,20,8.00
2019,01,20,16,21,8.00
2019,01,20,16,22,7.90
2019,01,20,16,23,8.00
2019,01,20,16,24,7.90
2019,01,20,16,25,7.90
2019,01,20,16,26,7.90
2019,01,20,16,27,7.90
2019,01,20,16,28,7.90
2019,01,20,16,29,7.90
2019,01,20,16,30,7.80
2019,01,20,16,31,7.80
2019,01,20,16,32,7.80
2019,01,20,16,33,7.80
2019,01,20,16,34,7.80
2019,01,20,16,35,7.80
2019,01,20,16,36,7.80
2019,01,20,16,37,7.80
2019,01,20,16,38,7.80
2019,01,20,16,39,7.70
2019,01,20,16,40,7.70
2019,01,20,16,41,7.70
2019,01,20,16,42,7.70
2019,01,20,16,43,7.70
2019,01,20,16,44,7.70
2019,01,20,16,45,7.70
2019,01,20,16,46,7.70
2019,01,20,16,47,7.70
2019,01,20,16,48,7.70
2019,01,20,16,49,7.70
2019,01,20,16,50,7.60
2019,01,20,16,51,7.60
2019,01,20,16,52,7.60
2019,01,20,16,53,7.60
2019,01,20,16,54,7.60
2019,01,20,16,55,7.60
2019,01,20,16,56,7.60
2019,01,20,16,57,7.60
2019,01,20,16,58,7.60
2019,01,20,16,59,7.60
2019,01,20,17,00,7.60
2019,01,20,17,01,7.60
2019,01,20,17,02,7.60
2019,01,20,17,03,7.50
2019,01,20,17,04,7.50
2019,01,20,17,05,7.50
2019,01,20,17,06,7.50
2019,01,20,17,07,7.50
2019,01,20,17,08,7.40
2019,01,20,17,09,7.40
2019,01,20,17,10,7.40
2019,01,20,17,11,7.40
2019,01,20,17,12,7.40
2019,01,20,17,13,7.40
2019,01,20,17,14,7.40
2019,01,20,17,15,7.40
2019,01,20,17,16,7.30
2019,01,20,17,17,7.30
2019,01,20,17,18,7.30
2019,01,20,17,19,7.30
2019,01,20,17,20,7.30
2019,01,20,17,21,7.30
2019,01,20,17,22,7.30
2019,01,20,17,23,7.30
2019,01,20,17,24,7.30
2019,01,20,17,25,7.30
2019,01,20,17,26,7.20
2019,01,20,17,27,7.20
2019,01,20,17,28,7.20
2019,01,20,17,29,7.20
2019,01,20,17,30,7.20
2019,01,20,17,31,7.20
2019,01,20,17,32,7.20
2019,01,20,17,33,7.10
2019,01,20,17,34,7.10
2019,01,20,17,35,7.10
2019,01,20,17,36,7.10
2019,01,20,17,37,7.10
2019,01,20,17,38,7.10
2019,01,20,17,39,7.10
2019,01,20,17,40,7.00
2019,01,20,17,41,7.00
2019,01,20,17,42,7.00
2019,01,20,17,43,6.90
2019,01,20,17,44,6.90
2019,01,20,17,45,6.90
2019,01,20,17,46,6.90
2019,01,20,17,47,6.90
2019,01,20,17,48,6.90
2019,01,20,17,49,6.90
2019,01,20,17,50,6.90
2019,01,20,17,51,6.80
2019,01,20,17,52,6.80
2019,01,20,17,53,6.80
2019,01,20,17,54,6.80
2019,01,20,17,55,6.80
2019,01,20,17,56,6.80
2019,01,20,17,57,6.80
2019,01,20,17,58,6.70
2019,01,20,17,59,6.70
2019,01,20,18,00,6.70
2019,01,20,18,01,6.70
2019,01,20,18,02,6.70
2019,01,20,18,03,6.70
2019,01,20,18,04,6.70
2019,01,20,18,05,6.70
2019,01,20,18,06,6.70
2019,01,20,18,07,6.60
2019,01,20,18,08,6.60
2019,01,20,18,09,6.60
2019,01,20,18,10,6.60
2019,01,20,18,11,6.50
2019,01,20,18,12,6.50
2019,01,20,18,13,6.50
2019,01,20,18,14,6.50
2019,01,20,18,15,6.40
2019,01,20,18,16,6.40
2019,01,20,18,17,6.40
2019,01,20,18,18,6.40
2019,01,20,18,19,6.40
2019,01,20,18,20,6.30
2019,01,20,18,21,6.30
2019,01,20,18,22,6.30
2019,01,20,18,23,6.20
2019,01,20,18,24,6.20
2019,01,20,18,25,6.20
2019,01,20,18,26,6.20
2019,01,20,18,27,6.10
2019,01,20,18,28,6.10
2019,01,20,18,29,6.10
2019,01,20,18,30,6.10
2019,01,20,18,31,6.10
2019,01,20,18,32,6.10
2019,01,20,18,33,6.10
2019,01,20,18,34,6.10
2019,01,20,18,35,6.00
2019,01,20,18,36,6.00
2019,01,20,18,37,6.00
2019,01,20,18,38,6.00
2019,01,20,18,39,6.00
2019,01,20,18,40,6.00
2019,01,20,18,41,6.00
2019,01,20,18,42,6.00
2019,01,20,18,43,6.00
2019,01,20,18,44,6.00
2019,01,20,18,45,6.00
2019,01,20,18,46,6.00
2019,01,20,18,47,6.00
2019,01,20,18,48,5.90
2019,01,20,18,49,5.90
2019,01,20,18,50,5.90
2019,01,20,18,51,5.90
2019,01,20,18,52,5.90
2019,01,20,18,53,5.90
2019,01,20,18,54,5.80
2019,01,20,18,55,5.80
2019,01,20,18,56,5.80
2019,01,20,18,57,5.80
2019,01,20,18,58,5.70
2019,01,20,18,59,5.70
2019,01,20,19,00,5.70
2019,01,20,19,01,5.70
2019,01,20,19,02,5.70
2019,01,20,19,03,5.70
2019,01,20,19,04,5.70
2019,01,20,19,05,5.60
2019,01,20,19,06,5.60
2019,01,20,19,07,5.60
2019,01,20,19,08,5.60
2019,01,20,19,09,5.50
2019,01,20,19,10,5.50
2019,01,20,19,11,5.50
2019,01,20,19,12,5.40
2019,01,20,19,13,5.40
2019,01,20,19,14,5.40
2019,01,20,19,15,5.40
2019,01,20,19,16,5.30
2019,01,20,19,17,5.30
2019,01,20,19,18,5.30
2019,01,20,19,19,5.30
2019,01,20,19,20,5.30
2019,01,20,19,21,5.20
2019,01,20,19,22,5.20
2019,01,20,19,23,5.20
2019,01,20,19,24,5.20
2019,01,20,19,25,5.20
2019,01,20,19,26,5.20
2019,01,20,19,27,5.20
2019,01,20,19,28,5.20
2019,01,20,19,29,5.10
2019,01,20,19,30,5.10
2019,01,20,19,31,5.10
2019,01,20,19,32,5.10
2019,01,20,19,33,5.10
2019,01,20,19,34,5.10
2019,01,20,19,35,5.10
2019,01,20,19,36,5.00
2019,01,20,19,37,5.00
2019,01,20,19,38,5.00
2019,01,20,19,39,4.90
2019,01,20,19,40,4.90
2019,01,20,19,41,4.90
2019,01,20,19,42,4.90
2019,01,20,19,43,4.80
2019,01,20,19,44,4.80
2019,01,20,19,45,4.80
2019,01,20,19,46,4.80
2019,01,20,19,47,4.80
2019,01,20,19,48,4.70
2019,01,20,19,49,4.70
2019,01,20,19,50,4.70
2019,01,20,19,51,4.70
2019,01,20,19,52,4.60
2019,01,20,19,53,4.60
2019,01,20,19,54,4.60
2019,01,20,19,55,4.60
2019,01,20,19,56,4.60
2019,01,20,19,57,4.60
2019,01,20,19,58,4.50
2019,01,20,19,59,4.50
2019,01,20,20,00,4.50
2019,01,20,20,01,4.50
2019,01,20,20,02,4.40
2019,01,20,20,03,4.40
2019,01,20,20,04,4.40
2019,01,20,20,05,4.40
2019,01,20,20,06,4.40
2019,01,20,20,07,4.40
2019,01,20,20,08,4.40
2019,01,20,20,09,4.30
2019,01,20,20,10,4.30
2019,01,20,20,11,4.30
2019,01,20,20,12,4.30
2019,01,20,20,13,4.30
2019,01,20,20,14,4.30
2019,01,20,20,15,4.30
2019,01,20,20,16,4.20
2019,01,20,20,17,4.20
2019,01,20,20,18,4.20
2019,01,20,20,19,4.20
2019,01,20,20,20,4.20
2019,01,20,20,21,4.20
2019,01,20,20,22,4.20
2019,01,20,20,23,4.20
2019,01,20,20,24,4.20
2019,01,20,20,25,4.20
2019,01,20,20,26,4.10
2019,01,20,20,27,4.10
2019,01,20,20,28,4.10
2019,01,20,20,29,4.10
2019,01,20,20,30,4.00
2019,01,20,20,31,4.00
2019,01,20,20,32,4.00
2019,01,20,20,33,4.00
2019,01,20,20,34,4.00
2019,01,20,20,35,4.00
2019,01,20,20,36,4.00
2019,01,20,20,37,3.90
2019,01,20,20,38,3.90
2019,01,20,20,39,3.90
2019,01,20,20,40,3.90
2019,01,20,20,41,3.90
2019,01,20,20,42,3.90
2019,01,20,20,43,3.80
2019,01,20,20,44,3.80
2019,01,20,20,45,3.80
2019,01,20,20,46,3.80
2019,01,20,20,47,3.80
2019,01,20,20,48,3.80
2019,01,20,20,49,3.80
2019,01,20,20,50,3.80
2019,01,20,20,51,3.70
2019,01,20,20,52,3.70
2019,01,20,20,53,3.70
2019,01,20,20,54,3.70
2019,01,20,20,55,3.70
2019,01,20,20,56,3.70
2019,01,20,20,57,3.70
2019,01,20,20,58,3.70
2019,01,20,20,59,3.60
2019,01,20,21,00,3.60
2019,01,20,21,01,3.70
2019,01,20,21,02,3.60
2019,01,20,21,03,3.60
2019,01,20,21,04,3.60
2019,01,20,21,05,3.60
2019,01,20,21,06,3.60
2019,01,20,21,07,3.60
2019,01,20,21,08,3.60
2019,01,20,21,09,3.60
2019,01,20,21,10,3.60
2019,01,20,21,11,3.60
2019,01,20,21,12,3.50
2019,01,20,21,13,3.50
2019,01,20,21,14,3.50
2019,01,20,21,15,3.50
2019,01,20,21,16,3.50
2019,01,20,21,17,3.50
2019,01,20,21,18,3.50
2019,01,20,21,19,3.40
2019,01,20,21,20,3.40
2019,01,20,21,21,3.40
2019,01,20,21,22,3.40
2019,01,20,21,23,3.40
2019,01,20,21,24,3.40
2019,01,20,21,25,3.40
2019,01,20,21,26,3.40
2019,01,20,21,27,3.30
2019,01,20,21,28,3.30
2019,01,20,21,29,3.30
2019,01,20,21,30,3.30
2019,01,20,21,31,3.30
2019,01,20,21,32,3.30
2019,01,20,21,33,3.30
2019,01,20,21,34,3.20
2019,01,20,21,35,3.20
2019,01,20,21,36,3.20
2019,01,20,21,37,3.20
2019,01,20,21,38,3.20
2019,01,20,21,39,3.10
2019,01,20,21,40,3.10
2019,01,20,21,41,3.10
2019,01,20,21,42,3.10
2019,01,20,21,43,3.10
2019,01,20,21,44,3.10
2019,01,20,21,45,3.10
2019,01,20,21,46,3.10
2019,01,20,21,47,3.10
2019,01,20,21,48,3.10
2019,01,20,21,49,3.10
2019,01,20,21,50,3.00
2019,01,20,21,51,3.00
2019,01,20,21,52,3.00
2019,01,20,21,53,2.90
2019,01,20,21,54,2.90
2019,01,20,21,55,2.90
2019,01,20,21,56,2.90
2019,01,20,21,57,2.90
2019,01,20,21,58,2.90
2019,01,20,21,59,2.90
2019,01,20,22,00,2.90
2019,01,20,22,01,2.90
2019,01,20,22,02,2.90
2019,01,20,22,03,2.90
2019,01,20,22,04,2.90
2019,01,20,22,05,2.90
2019,01,20,22,06,2.80
2019,01,20,22,07,2.80
2019,01,20,22,08,2.80
2019,01,20,22,09,2.80
2019,01,20,22,10,2.80
2019,01,20,22,11,2.80
2019,01,20,22,12,2.80
2019,01,20,22,13,2.80
2019,01,20,22,14,2.80
2019,01,20,22,15,2.80
2019,01,20,22,16,2.80
2019,01,20,22,17,2.80
2019,01,20,22,18,2.70
2019,01,20,22,19,2.70
2019,01,20,22,20,2.70
2019,01,20,22,21,2.70
2019,01,20,22,22,2.70
2019,01,20,22,23,2.70
2019,01,20,22,24,2.70
2019,01,20,22,25,2.60
2019,01,20,22,26,2.60
2019,01,20,22,27,2.60
2019,01,20,22,28,2.60
2019,01,20,22,29,2.60
2019,01,20,22,30,2.60
2019,01,20,22,31,2.60
2019,01,20,22,32,2.60
2019,01,20,22,33,2.60
2019,01,20,22,34,2.60
2019,01,20,22,35,2.60
2019,01,20,22,36,2.60
2019,01,20,22,37,2.60
2019,01,20,22,38,2.60
2019,01,20,22,39,2.60
2019,01,20,22,40,2.60
2019,01,20,22,41,2.60
2019,01,20,22,42,2.60
2019,01,20,22,43,2.60
2019,01,20,22,44,2.60
2019,01,20,22,45,2.60
2019,01,20,22,46,2.60
2019,01,20,22,47,2.60
2019,01,20,22,48,2.50
2019,01,20,22,49,2.50
2019,01,20,22,50,2.50
2019,01,20,22,51,2.50
2019,01,20,22,52,2.50
2019,01,20,22,53,2.50
2019,01,20,22,54,2.40
2019,01,20,22,55,2.40
2019,01,20,22,56,2.40
2019,01,20,22,57,2.40
2019,01,20,22,58,2.40
2019,01,20,22,59,2.40
2019,01,20,23,00,2.40
2019,01,20,23,01,2.40
2019,01,20,23,02,2.40
2019,01,20,23,03,2.40
2019,01,20,23,04,2.40
2019,01,20,23,05,2.40
2019,01,20,23,06,2.40
2019,01,20,23,07,2.40
2019,01,20,23,08,2.40
2019,01,20,23,09,2.40
2019,01,20,23,10,2.40
2019,01,20,23,11,2.40
2019,01,20,23,12,2.40
2019,01,20,23,13,2.40
2019,01,20,23,14,2.40
2019,01,20,23,15,2.40
2019,01,20,23,16,2.40
2019,01,20,23,17,2.40
2019,01,20,23,18,2.40
2019,01,20,23,19,2.40
2019,01,20,23,20,2.40
2019,01,20,23,21,2.40
2019,01,20,23,22,2.30
2019,01,20,23,23,2.30
2019,01,20,23,24,2.30
2019,01,20,23,25,2.30
2019,01,20,23,26,2.20
2019,01,20,23,27,2.20
2019,01,20,23,28,2.20
2019,01,20,23,29,2.20
2019,01,20,23,30,2.20
2019,01,20,23,31,2.20
2019,01,20,23,32,2.20
2019,01,20,23,33,2.20
2019,01,20,23,34,2.20
2019,01,20,23,35,2.20
2019,01,20,23,36,2.20
2019,01,20,23,37,2.20
2019,01,20,23,38,2.20
2019,01,20,23,39,2.20
2019,01,20,23,40,2.20
2019,01,20,23,41,2.20
2019,01,20,23,42,2.20
2019,01,20,23,43,2.20
2019,01,20,23,44,2.20
2019,01,20,23,45,2.20
2019,01,20,23,46,2.20
2019,01,20,23,47,2.20
2019,01,20,23,48,2.20
2019,01,20,23,49,2.30
2019,01,20,23,50,2.30
2019,01,20,23,51,2.30
2019,01,20,23,52,2.30
2019,01,20,23,53,2.30
2019,01,20,23,54,2.30
2019,01,20,23,55,2.30
2019,01,20,23,56,2.30
2019,01,20,23,57,2.30
2019,01,20,23,58,2.30
2019,01,20,23,59,2.30
